GW0968 Weather Reports


Display with metric or nautical units.
time (UTC)temp
F
wind
direction
speed
MPH
gust
MPH
rain 1hr
in
rain 24hr
in
rain mn
in
humidity
%
barometer
mb
20260902031608 60 262 0.0 1.0 0.00 0.00 0.00 95 1021.6
20260902031018 60 262 0.0 1.0 0.00 0.00 0.00 95 1021.5
20260902030524 60 262 0.0 1.0 0.00 0.00 0.00 95 1021.7
20260902030107 60 269 0.0 0.0 0.00 0.00 0.00 95 1021.7
20260902025525 60 269 0.0 0.0 0.00 0.00 0.00 94 1021.7
20260902025029 60 269 0.0 0.0 0.00 0.00 0.00 94 1021.6
20260902024549 60 269 0.0 0.0 0.00 0.00 0.00 94 1021.3
20260902024024 60 269 0.0 1.0 0.00 0.00 0.00 95 1021.3
20260902023519 60 269 0.0 1.0 0.00 0.00 0.00 95 1021.3
20260902023045 60 269 0.0 1.0 0.00 0.00 0.00 95 1021.4
20260902022519 60 269 0.0 1.0 0.00 0.00 0.00 94 1021.2
20260902022018 60 269 0.0 0.0 0.00 0.00 0.00 94 1021.3
20260902021556 60 269 0.0 2.0 0.00 0.00 0.00 94 1021.0
20260902021021 60 269 0.0 2.0 0.00 0.00 0.00 94 1020.9
20260902020520 60 269 0.0 1.0 0.00 0.00 0.00 94 1021.0
20260902020058 61 269 0.0 0.0 0.00 0.00 0.00 93 1021.0
20260902015525 61 269 0.0 0.0 0.00 0.00 0.00 93 1021.2
20260902015021 61 269 0.0 0.0 0.00 0.00 0.00 93 1021.1
20260902014604 61 269 0.0 0.0 0.00 0.00 0.00 93 1021.2
20260902014017 61 269 0.0 1.0 0.00 0.00 0.00 93 1021.2
20260902013519 61 269 0.0 1.0 0.00 0.00 0.00 92 1021.2
20260902013153 62 269 0.0 1.0 0.00 0.00 0.00 92 1021.2
20260902012526 62 269 0.0 1.0 0.00 0.00 0.00 92 1021.1
20260902012018 62 269 0.0 1.0 0.00 0.00 0.00 91 1021.1
20260902011559 62 269 0.0 1.0 0.00 0.00 0.00 92 1021.1
20260902011017 62 269 0.0 2.0 0.00 0.00 0.00 91 1021.1
20260902010519 62 269 0.0 2.0 0.00 0.00 0.00 91 1021.2
20260902010117 62 217 0.0 0.0 0.00 0.00 0.00 91 1021.2
20260902005519 62 217 0.0 1.0 0.00 0.00 0.00 91 1021.2
20260902005019 63 217 0.0 2.0 0.00 0.00 0.00 91 1021.2
20260902004551 63 229 0.0 2.0 0.00 0.00 0.00 91 1021.1
20260902004023 63 175 0.0 2.0 0.00 0.00 0.00 91 1021.0
20260902003527 63 174 0.0 2.0 0.00 0.00 0.00 91 1020.9
20260902003059 63 190 0.0 1.0 0.00 0.00 0.00 91 1020.9
20260902002518 63 190 0.0 1.0 0.00 0.00 0.00 91 1021.0
20260902002042 63 190 0.0 1.0 0.00 0.00 0.00 90 1020.8
20260902001550 63 190 0.0 1.0 0.00 0.00 0.00 89 1020.6
20260902001019 63 190 0.0 1.0 0.00 0.00 0.00 89 1020.6
20260902000517 64 190 0.0 2.0 0.00 0.00 0.00 88 1020.8
20260902000059 64 248 0.0 2.0 0.00 0.00 0.00 88 1020.7
20260901235519 64 241 0.0 1.0 0.00 0.00 0.00 88 1020.7
20260901235021 64 241 0.0 4.0 0.00 0.00 0.00 87 1020.8
20260901234601 64 252 0.0 4.0 0.00 0.00 0.00 87 1020.9
20260901234043 64 263 0.0 2.0 0.00 0.00 0.00 87 1020.9
20260901233525 64 209 0.0 1.0 0.00 0.00 0.00 87 1021.0
20260901233122 65 180 0.0 2.0 0.00 0.00 0.00 87 1021.0
20260901232535 65 180 0.0 2.0 0.00 0.00 0.00 88 1020.9
20260901232021 65 180 0.0 1.0 0.00 0.00 0.00 87 1021.1
20260901231555 65 180 0.0 2.0 0.00 0.00 0.00 87 1021.0
20260901231017 65 180 0.0 2.0 0.00 0.00 0.00 87 1021.0
20260901230520 65 187 0.0 1.0 0.00 0.00 0.00 87 1020.9
20260901230104 65 187 0.0 1.0 0.00 0.00 0.00 87 1020.9
20260901225523 65 187 0.0 2.0 0.00 0.00 0.00 86 1021.0
20260901225025 65 191 0.0 4.0 0.00 0.00 0.00 85 1021.0
20260901224556 66 184 0.0 7.0 0.00 0.00 0.00 85 1020.8
20260901224025 66 209 0.0 3.0 0.00 0.00 0.00 85 1020.8
20260901223521 66 242 1.0 3.0 0.00 0.00 0.00 84 1020.8
20260901223054 66 261 1.0 6.0 0.00 0.00 0.00 84 1020.7
20260901222518 66 256 1.0 6.0 0.00 0.00 0.00 83 1020.7
20260901222020 66 273 1.0 5.0 0.00 0.00 0.00 83 1020.6
20260901221637 67 219 0.0 2.0 0.00 0.00 0.00 83 1020.6
20260901221025 67 263 0.0 3.0 0.00 0.00 0.00 83 1020.6
20260901220619 67 252 0.0 3.0 0.00 0.00 0.00 83 1020.6
20260901220107 67 245 0.0 3.0 0.00 0.00 0.00 83 1020.5
20260901215523 67 252 0.0 6.0 0.00 0.00 0.00 83 1020.4
20260901215029 67 227 0.0 6.0 0.00 0.00 0.00 82 1020.4
20260901214556 67 249 1.0 4.0 0.00 0.00 0.00 81 1020.4
20260901214021 68 198 1.0 6.0 0.00 0.00 0.00 82 1020.4
20260901213518 68 268 0.0 4.0 0.00 0.00 0.00 81 1020.3
20260901213056 68 234 1.0 7.0 0.00 0.00 0.00 80 1020.2
20260901212519 68 240 1.0 7.0 0.00 0.00 0.00 80 1020.1
20260901212017 69 220 2.0 6.0 0.00 0.00 0.00 79 1020.1
20260901211550 69 249 1.0 3.0 0.00 0.00 0.00 80 1020.1
20260901211019 69 206 0.0 3.0 0.00 0.00 0.00 80 1020.2
20260901210521 69 264 0.0 3.0 0.00 0.00 0.00 78 1020.4
20260901205518 70 250 0.0 2.0 0.00 0.00 0.00 78 1020.5
20260901205017 70 230 0.0 4.0 0.00 0.00 0.00 78 1020.5
20260901204601 70 248 1.0 5.0 0.00 0.00 0.00 77 1020.5
20260901204023 70 242 2.0 6.0 0.00 0.00 0.00 74 1020.6
20260901203525 71 250 1.0 4.0 0.00 0.00 0.00 75 1020.5
20260901203219 71 254 1.0 4.0 0.00 0.00 0.00 74 1020.5
20260901202519 72 248 1.0 6.0 0.00 0.00 0.00 73 1020.4
20260901202018 72 188 1.0 7.0 0.00 0.00 0.00 72 1020.4
20260901201600 72 180 3.0 7.0 0.00 0.00 0.00 76 1020.3
20260901201021 71 223 1.0 9.0 0.00 0.00 0.00 78 1020.2
20260901200529 70 232 2.0 9.0 0.00 0.00 0.00 77 1020.1
20260901200108 71 200 1.0 7.0 0.00 0.00 0.00 77 1020.1
20260901195519 70 227 2.0 9.0 0.00 0.00 0.00 80 1020.3
20260901195023 70 249 2.0 8.0 0.00 0.00 0.00 78 1020.3
20260901194624 70 198 0.0 8.0 0.00 0.00 0.00 79 1020.3
20260901194018 70 257 1.0 4.0 0.00 0.00 0.00 79 1020.3
20260901193522 69 211 0.0 3.0 0.00 0.00 0.00 79 1020.2
20260901193035 69 238 1.0 9.0 0.00 0.00 0.00 80 1020.4
20260901192518 69 244 1.0 9.0 0.00 0.00 0.00 80 1020.4
20260901192025 69 175 3.0 9.0 0.00 0.00 0.00 77 1020.4
20260901191624 70 246 1.0 8.0 0.00 0.00 0.00 77 1020.4
20260901191022 71 238 1.0 8.0 0.00 0.00 0.00 77 1020.3
20260901190519 71 197 4.0 7.0 0.00 0.00 0.00 78 1020.3
20260901190348 71 241 0.0 4.0 0.00 0.00 0.00 80 1020.4
20260901185519 70 224 1.0 8.0 0.00 0.00 0.00 78 1020.5
20260901185019 70 181 4.0 8.0 0.00 0.00 0.00 79 1020.4
20260901184533 69 184 1.0 9.0 0.00 0.00 0.00 77 1020.5
20260901184021 69 143 1.0 9.0 0.00 0.00 0.00 80 1020.4
20260901183522 70 169 2.0 6.0 0.00 0.00 0.00 75 1020.5
20260901183052 70 269 2.0 6.0 0.00 0.00 0.00 79 1020.5
20260901182524 70 247 1.0 5.0 0.00 0.00 0.00 80 1020.5
20260901182026 70 272 2.0 6.0 0.00 0.00 0.00 78 1020.5
20260901181624 70 175 2.0 8.0 0.00 0.00 0.00 76 1020.5
20260901181024 71 208 2.0 9.0 0.00 0.00 0.00 76 1020.5
20260901180521 71 251 2.0 9.0 0.00 0.00 0.00 77 1020.5
20260901180105 72 250 2.0 8.0 0.00 0.00 0.00 73 1020.3
20260901175520 73 217 1.0 5.0 0.00 0.00 0.00 76 1020.3
20260901175025 73 243 2.0 6.0 0.00 0.00 0.00 76 1020.4
20260901174610 72 194 3.0 6.0 0.00 0.00 0.00 78 1020.5
20260901174027 73 234 2.0 7.0 0.00 0.00 0.00 77 1020.5
20260901173526 72 213 1.0 7.0 0.00 0.00 0.00 79 1020.5
20260901173108 72 280 2.0 5.0 0.00 0.00 0.00 78 1020.4
20260901172521 71 239 1.0 7.0 0.00 0.00 0.00 77 1020.4
20260901172021 71 232 1.0 7.0 0.00 0.00 0.00 76 1020.5
20260901171609 71 198 1.0 6.0 0.00 0.00 0.00 77 1020.5
20260901171020 70 228 1.0 8.0 0.00 0.00 0.00 81 1020.6
20260901170526 70 173 4.0 8.0 0.00 0.00 0.00 80 1020.4
20260901170159 70 230 1.0 7.0 0.00 0.00 0.00 83 1020.6
20260901165519 70 180 3.0 7.0 0.00 0.00 0.00 83 1020.7
20260901165026 70 219 2.0 6.0 0.00 0.00 0.00 79 1020.8
20260901164609 69 277 1.0 4.0 0.00 0.00 0.00 81 1021.7
20260901164019 68 240 1.0 4.0 0.00 0.00 0.00 83 1021.5
20260901163524 67 163 1.0 3.0 0.00 0.00 0.00 84 1020.9
20260901163110 67 237 0.0 3.0 0.00 0.00 0.00 85 1021.0
20260901162520 66 215 0.0 4.0 0.00 0.00 0.00 84 1020.8
20260901162020 66 197 2.0 4.0 0.00 0.00 0.00 85 1020.6
20260901161615 66 136 1.0 7.0 0.00 0.00 0.00 85 1020.6
20260901161018 66 251 2.0 7.0 0.00 0.00 0.00 84 1020.6
20260901160519 67 195 0.0 6.0 0.00 0.00 0.00 86 1021.2
20260901160128 66 217 1.0 5.0 0.00 0.00 0.00 85 1022.2
20260901155517 65 184 1.0 5.0 0.00 0.00 0.00 91 1021.9
20260901155027 64 190 2.0 10.0 0.00 0.00 0.00 88 1020.5
20260901154639 64 233 3.0 10.0 0.00 0.00 0.00 87 1020.1
20260901154024 65 198 3.0 8.0 0.00 0.00 0.00 86 1019.8
20260901153522 66 120 4.0 8.0 0.00 0.00 0.00 85 1019.9
20260901153129 67 163 2.0 8.0 0.00 0.00 0.00 84 1021.2
20260901152519 68 213 4.0 8.0 0.00 0.00 0.00 84 1022.8
20260901152017 67 176 2.0 6.0 0.00 0.00 0.00 87 1022.2
20260901151624 66 155 1.0 8.0 0.00 0.00 0.00 87 1021.1
20260901151025 66 184 2.0 8.0 0.00 0.00 0.00 89 1022.5
20260901150524 66 239 1.0 4.0 0.00 0.00 0.00 91 1022.4
20260901150127 65 237 1.0 6.0 0.00 0.00 0.00 92 1021.4
20260901145524 64 233 1.0 7.0 0.00 0.00 0.00 90 1021.0
20260901145025 64 246 2.0 7.0 0.00 0.00 0.00 90 1021.1
20260901144625 64 217 2.0 5.0 0.00 0.00 0.00 92 1021.0
20260901144025 63 259 1.0 6.0 0.00 0.00 0.00 93 1021.2
20260901143524 63 237 1.0 6.0 0.00 0.00 0.00 94 1021.3
20260901143126 62 196 1.0 6.0 0.00 0.00 0.00 93 1020.2
20260901142518 63 154 2.0 6.0 0.00 0.00 0.00 92 1020.5
20260901142150 63 215 2.0 7.0 0.00 0.00 0.00 94 1020.6
20260901141657 62 248 1.0 7.0 0.00 0.00 0.00 94 1020.2
20260901141047 62 202 1.0 5.0 0.00 0.00 0.00 93 1020.0
20260901140552 63 246 2.0 4.0 0.00 0.00 0.00 93 1020.5
20260901140225 63 257 1.0 4.0 0.00 0.00 0.00 93 1020.2
20260901135552 63 237 1.0 7.0 0.00 0.00 0.00 95 1020.0
20260901135048 63 247 2.0 8.0 0.00 0.00 0.00 94 1020.0
20260901134651 63 271 2.0 8.0 0.00 0.00 0.00 95 1020.2
20260901134026 62 223 2.0 5.0 0.00 0.00 0.00 96 1020.3
20260901133537 62 242 1.0 7.0 0.00 0.00 0.00 96 1020.2
20260901133106 62 217 3.0 6.0 0.00 0.00 0.00 96 1020.3
20260901132521 61 240 1.0 6.0 0.00 0.00 0.00 96 1020.4
20260901132025 61 244 0.0 6.0 0.00 0.00 0.00 97 1020.6
20260901131625 61 240 1.0 6.0 0.00 0.00 0.00 97 1020.3
20260901131019 60 246 1.0 4.0 0.00 0.00 0.00 97 1020.3
20260901130524 60 248 0.0 5.0 0.00 0.00 0.00 97 1020.3
20260901130219 59 163 1.0 5.0 0.00 0.00 0.00 97 1020.4
20260901125523 59 196 0.0 3.0 0.00 0.00 0.00 97 1020.3
20260901125027 59 250 2.0 3.0 0.00 0.00 0.00 97 1020.2
20260901124556 59 181 0.0 1.0 0.00 0.00 0.00 97 1020.4
20260901124024 58 176 0.0 3.0 0.00 0.00 0.00 97 1020.6
20260901123525 58 114 0.0 3.0 0.00 0.00 0.00 97 1020.7
20260901123105 57 220 0.0 2.0 0.00 0.00 0.00 96 1020.6
20260901122525 57 250 0.0 2.0 0.00 0.00 0.00 96 1020.5
20260901122024 57 250 0.0 2.0 0.00 0.00 0.00 96 1020.5
20260901121603 57 213 0.0 1.0 0.00 0.00 0.00 96 1020.6
20260901121026 57 213 0.0 1.0 0.00 0.00 0.00 96 1021.0
20260901120523 57 213 0.0 1.0 0.00 0.00 0.00 96 1021.0
20260901120120 57 213 0.0 1.0 0.00 0.00 0.00 96 1021.1
20260901115521 57 213 0.0 2.0 0.00 0.00 0.00 96 1021.1
20260901115025 57 213 0.0 2.0 0.00 0.00 0.00 96 1021.1
20260901114603 57 248 0.0 1.0 0.00 0.00 0.00 96 1021.1
20260901114025 57 248 0.0 2.0 0.00 0.00 0.00 96 1021.1
20260901113524 57 248 0.0 2.0 0.00 0.00 0.00 96 1021.3
20260901113105 57 227 0.0 1.0 0.00 0.00 0.00 97 1021.3
20260901112525 57 226 0.0 1.0 0.00 0.00 0.00 97 1021.3
20260901112021 57 226 0.0 2.0 0.00 0.00 0.00 97 1021.2
20260901111610 57 226 0.0 2.0 0.00 0.00 0.00 96 1021.2
20260901111025 57 213 0.0 2.0 0.00 0.00 0.00 96 1021.2
20260901110524 56 213 0.0 1.0 0.00 0.00 0.00 96 1021.2
20260901110127 56 213 0.0 1.0 0.00 0.00 0.00 96 1021.0
20260901105524 56 213 0.0 1.0 0.00 0.00 0.00 96 1020.9
20260901105025 56 213 0.0 2.0 0.00 0.00 0.00 96 1020.9
20260901104616 56 213 0.0 2.0 0.00 0.00 0.00 96 1020.9
20260901104025 56 213 1.0 2.0 0.00 0.00 0.00 95 1020.9
20260901103524 57 213 0.0 0.0 0.00 0.00 0.00 95 1020.8
20260901103058 57 213 0.0 0.0 0.00 0.00 0.00 96 1020.7
20260901102521 57 213 0.0 1.0 0.00 0.00 0.00 96 1020.8
20260901102042 57 213 0.0 1.0 0.00 0.00 0.00 96 1020.9
20260901102038 57 213 0.0 0.0 0.00 0.00 0.00 96 1020.9
20260901101024 57 213 0.0 1.0 0.00 0.00 0.00 96 1020.9
20260901100522 57 213 0.0 1.0 0.00 0.00 0.00 95 1020.8
20260901100123 57 213 0.0 1.0 0.00 0.00 0.00 95 1020.7
20260901095521 57 213 0.0 2.0 0.00 0.00 0.00 95 1020.7
20260901095024 57 213 0.0 3.0 0.00 0.00 0.00 95 1020.6
20260901094607 57 244 1.0 3.0 0.00 0.00 0.00 95 1020.5
20260901094021 57 219 0.0 2.0 0.00 0.00 0.00 95 1020.3
20260901093524 57 219 1.0 2.0 0.00 0.00 0.00 95 1020.4
20260901093123 57 219 0.0 1.0 0.00 0.00 0.00 96 1020.2
20260901092525 57 219 0.0 1.0 0.00 0.00 0.00 96 1020.3
20260901092025 57 218 0.0 1.0 0.00 0.00 0.00 96 1020.6
20260901091629 57 217 0.0 1.0 0.00 0.00 0.00 96 1020.7
20260901091023 57 207 0.0 1.0 0.00 0.00 0.00 95 1020.7
20260901090527 57 206 0.0 2.0 0.00 0.00 0.00 95 1020.9
20260901090126 57 207 0.0 2.0 0.00 0.00 0.00 95 1020.7
20260901085524 56 234 0.0 2.0 0.00 0.00 0.00 95 1020.7
20260901085024 56 234 0.0 2.0 0.00 0.00 0.00 95 1020.6
20260901084616 57 203 0.0 1.0 0.00 0.00 0.00 95 1020.7
20260901084025 56 251 0.0 1.0 0.00 0.00 0.00 95 1020.6
20260901083525 57 251 0.0 1.0 0.00 0.00 0.00 95 1020.6
20260901083103 57 251 0.0 2.0 0.00 0.00 0.00 95 1020.6
20260901082524 57 251 0.0 2.0 0.00 0.00 0.00 95 1020.4
20260901082025 56 251 0.0 4.0 0.00 0.00 0.00 95 1020.5
20260901081616 56 209 2.0 4.0 0.00 0.00 0.00 94 1020.7
20260901081025 56 159 1.0 3.0 0.00 0.00 0.00 94 1020.6
20260901080525 56 250 0.0 1.0 0.00 0.00 0.00 94 1020.7
20260901080117 56 250 0.0 1.0 0.00 0.00 0.00 94 1020.7
20260901075525 56 269 0.0 2.0 0.00 0.00 0.00 94 1020.6
20260901075025 56 269 1.0 3.0 0.00 0.00 0.00 94 1020.8
20260901074609 56 257 1.0 3.0 0.00 0.00 0.00 94 1020.8
20260901074028 56 266 0.0 2.0 0.00 0.00 0.00 94 1020.9
20260901073524 56 266 0.0 1.0 0.00 0.00 0.00 93 1021.0
20260901073054 56 266 0.0 1.0 0.00 0.00 0.00 93 1021.0
20260901072524 56 266 0.0 1.0 0.00 0.00 0.00 93 1021.0
20260901072019 56 266 0.0 2.0 0.00 0.00 0.00 93 1021.0
20260901071605 56 266 1.0 2.0 0.00 0.00 0.00 94 1020.9
20260901071019 56 279 0.0 1.0 0.00 0.00 0.00 94 1021.0
20260901070525 56 279 0.0 0.0 0.00 0.00 0.00 94 1021.0
20260901070107 56 279 0.0 1.0 0.00 0.00 0.00 94 1021.2
20260901065524 56 279 0.0 1.0 0.00 0.00 0.00 94 1021.2
20260901065023 56 279 0.0 1.0 0.00 0.00 0.00 94 1021.3
20260901064613 56 261 0.0 0.0 0.00 0.00 0.00 94 1021.3
20260901064021 56 261 0.0 1.0 0.00 0.00 0.00 94 1021.3
20260901063524 56 261 0.0 2.0 0.00 0.00 0.00 94 1021.3
20260901063109 56 261 0.0 2.0 0.00 0.00 0.00 94 1021.1
20260901062520 56 257 0.0 2.0 0.00 0.00 0.00 94 1021.0
20260901062018 56 257 0.0 2.0 0.00 0.00 0.00 93 1021.1
20260901061615 56 257 0.0 2.0 0.00 0.00 0.00 93 1021.0
20260901061025 56 257 0.0 1.0 0.00 0.00 0.00 93 1021.4
20260901060518 56 257 0.0 1.0 0.00 0.00 0.00 93 1021.5
20260901060106 56 257 0.0 2.0 0.00 0.00 0.00 93 1021.4
20260901055524 56 257 1.0 3.0 0.00 0.00 0.00 93 1021.4
20260901055024 56 259 1.0 3.0 0.00 0.00 0.00 93 1021.5
20260901054611 55 259 0.0 1.0 0.00 0.00 0.00 93 1021.5
20260901054023 55 259 0.0 2.0 0.00 0.00 0.00 92 1021.6
20260901053519 55 259 0.0 2.0 0.00 0.00 0.00 92 1021.6
20260901053120 55 257 0.0 1.0 0.00 0.00 0.00 92 1021.5
20260901052519 55 257 0.0 2.0 0.00 0.00 0.00 91 1021.6
20260901052024 55 257 0.0 2.0 0.00 0.00 0.00 91 1021.7
20260901051602 55 257 0.0 1.0 0.00 0.00 0.00 91 1021.7
20260901051025 55 257 0.0 1.0 0.00 0.00 0.00 91 1021.8
20260901050521 55 257 0.0 2.0 0.00 0.00 0.00 91 1021.9
20260901050127 55 257 0.0 2.0 0.00 0.00 0.00 90 1022.0
20260901045524 56 257 0.0 1.0 0.00 0.00 0.00 90 1021.9
20260901045024 56 257 0.0 1.0 0.00 0.00 0.00 90 1021.9
20260901044601 56 257 0.0 1.0 0.00 0.00 0.00 89 1022.0
20260901044025 56 257 0.0 1.0 0.00 0.00 0.00 89 1022.1
20260901043521 56 257 0.0 0.0 0.00 0.00 0.00 88 1022.0
20260901043125 57 257 0.0 0.0 0.00 0.00 0.00 88 1022.0
20260901042524 57 257 0.0 0.0 0.00 0.00 0.00 88 1021.8
20260901042019 57 257 0.0 0.0 0.00 0.00 0.00 88 1022.0
20260901041605 57 257 0.0 1.0 0.00 0.00 0.00 87 1022.0
20260901041025 57 257 0.0 2.0 0.00 0.00 0.00 87 1022.0
20260901040525 57 257 0.0 2.0 0.00 0.00 0.00 86 1022.1
20260901040142 57 257 0.0 2.0 0.00 0.00 0.00 85 1022.2
20260901035524 58 251 0.0 2.0 0.00 0.00 0.00 85 1022.2
20260901035024 58 256 0.0 2.0 0.00 0.00 0.00 84 1022.1
20260901034557 58 256 0.0 1.0 0.00 0.00 0.00 82 1021.9
20260901034022 58 256 0.0 2.0 0.00 0.00 0.00 81 1021.8
20260901033518 58 256 0.0 2.0 0.00 0.00 0.00 81 1021.8
20260901033056 59 253 0.0 2.0 0.00 0.00 0.00 80 1022.0
20260901032549 58 227 0.0 2.0 0.00 0.00 0.00 80 1021.9
20260901032029 58 180 0.0 2.0 0.00 0.00 0.00 82 1021.9